Weather History for Cross City, FL

Change the Weather History Date:

Tuesday, April 29, 2014

  Actual Average Record
Temperature  
Mean Temperature 77 °F 70 °F  
Max Temperature 84 °F 83 °F 93 °F (2012)
Min Temperature 69 °F 56 °F 48 °F (2005)
Degree Days  
Heating Degree Days 0 1  
Month to date heating degree days 20 50  
Since 1 July heating degree days 1180 1305  
Cooling Degree Days 12 5  
Month to date cooling degree days 121 102  
Year to date cooling degree days 173 176  
Growing Degree Days 26 (Base 50)    
Moisture  
Dew Point 69 °F    
Average Humidity 85    
Maximum Humidity 100    
Minimum Humidity 65    
Precipitation  
Precipitation 0.06 in 0.05 in 0.19 in (1999)
Month to date precipitation 3.89 2.91  
Year to date precipitation 19.00 14.43  
Sea Level Pressure  
Sea Level Pressure 29.92 in    
Wind  
Wind Speed 6 mph (SSE)    
Max Wind Speed 26 mph    
Max Gust Speed 36 mph    
T = Trace of Precipitation, MM = Missing Value Source: NWS Daily Summary

Daily Weather History Graph

Daily Weather History Graph

Search for Another Location

Airport:

Trip Planner

Search our weather history database for the weather conditions in past years. The results will help you decide how hot, cold, wet, or windy it might be!

Date:

Astronomy

Apr. 29, 2014 Rise Set
Actual Time 6:51 AM EDT 8:08 PM EDT
Civil Twilight 6:26 AM EDT 8:33 PM EDT
Nautical Twilight 5:56 AM EDT 9:03 PM EDT
Astronomical Twilight 5:26 AM EDT 9:34 PM EDT
Moon 7:08 AM EDT (4/29) 8:45 PM EDT (4/29)
Length of Visible Light 14h 06m
Length of Day
13h 16m
New Moon, 0% of the Moon is Illuminated
Apr 29
New Moon
May 6
First Quarter
May 14
Full
May 21
Last Quarter
May 28
New

Hourly Weather History & Observations

Time (EDT) Temp. Heat Index Dew Point Humidity Pressure Visibility Wind Dir Wind Speed Gust Speed Precip Events Conditions
12:53 AM 70.0 °F - 69.1 °F 97% 29.87 in - Calm Calm - N/A   Unknown
1:53 AM 70.0 °F - 69.1 °F 97% 29.88 in - SSE 3.5 mph - N/A   Unknown
2:53 AM 70.0 °F - 68.0 °F 93% 29.87 in - SSE 3.5 mph - N/A   Unknown
3:53 AM 71.1 °F - 69.1 °F 93% 29.86 in - SSE 3.5 mph - N/A   Unknown
4:53 AM 72.0 °F - 69.1 °F 91% 29.87 in - SSE 3.5 mph - N/A   Unknown
5:53 AM 70.0 °F - 69.1 °F 97% 29.87 in - SSE 3.5 mph - N/A   Unknown
6:53 AM 69.1 °F - 68.0 °F 96% 29.89 in - North - - N/A   Unknown
7:53 AM 71.1 °F - 69.1 °F 93% 29.91 in - North - - 0.01 in   Unknown
8:53 AM 73.9 °F - 72.0 °F 93% 29.92 in - SE 3.5 mph - N/A   Unknown
9:53 AM 77.0 °F - 72.0 °F 84% 29.94 in - South 9.2 mph - N/A   Unknown
10:53 AM 80.1 °F 84.2 °F 73.0 °F 79% 29.94 in - South 8.1 mph - N/A   Unknown
11:53 AM 82.9 °F 88.0 °F 72.0 °F 69% 29.94 in - SSW 11.5 mph - N/A   Unknown
12:53 PM 84.0 °F 90.2 °F 73.0 °F 69% 29.94 in - SSW 10.4 mph - N/A   Unknown
1:53 PM 84.0 °F 89.6 °F 72.0 °F 67% 29.94 in - SW 12.7 mph - N/A   Unknown
2:23 PM 71.1 °F - 64.0 °F 78% 29.97 in - NNW 16.1 mph 31.1 mph N/A   Unknown
2:53 PM 69.1 °F - 64.9 °F 87% 29.96 in - NNW 11.5 mph - 0.03 in   Unknown
3:53 PM 70.0 °F - 66.0 °F 87% 29.95 in - North 9.2 mph - 0.02 in   Unknown
4:53 PM 73.0 °F - 66.9 °F 81% 29.95 in - North 5.8 mph - N/A   Unknown
5:53 PM 72.0 °F - 66.0 °F 81% 29.96 in - NNE 4.6 mph - N/A   Unknown
6:53 PM 72.0 °F - 66.9 °F 84% 29.87 in - ESE 6.9 mph - N/A   Unknown
7:53 PM 72.0 °F - 66.9 °F 84% 29.92 in - North - - N/A   Unknown
8:53 PM 71.1 °F - 66.9 °F 87% 29.95 in - ESE 4.6 mph - N/A   Unknown
9:53 PM 72.0 °F - 66.9 °F 84% 29.96 in - SE 5.8 mph - N/A   Unknown
10:53 PM 71.6 °F - 66.2 °F 83% 29.97 in - SSE 5.8 mph - N/A   Unknown
11:53 PM 71.1 °F - 66.9 °F 87% 29.97 in - Calm Calm - N/A   Unknown